Location: ?est�n
(49.8084°N, 15.1057°E)
Time: 14:10:51
(UTC+00:00)

Daily predictions for brighter satellites

Satellite Brightness Start Highest point End
(mag) Time Altitude Azimuth Time Altitude Azimuth Time Altitude Azimuth
Cosmos 1386 Rocket 4.5 19:01:43 10° N 19:07:47 84° E 19:13:54 10° S
USA 306 3.4 19:04:17 10° WNW 19:08:30 59° NNE 19:12:44 10° E
Cosmos 1503 Rocket 4.1 19:04:44 10° S 19:09:45 54° ESE 19:14:51 10° NNE
Cosmos 2221 4.4 19:08:29 10° SW 19:12:27 35° WNW 19:16:29 10° N
Cosmos 1812 4.4 19:12:55 10° SE 19:15:27 17° E 19:18:01 10° NE
Cosmos 1844 3.7 19:10:50 10° SSW 19:16:35 85° ESE 19:22:16 10° NNE
SOZ 4.3 19:15:13 10° WSW 19:18:17 64° SSE 19:20:28 10° ENE
Ariane Rocket 3.3 19:13:28 10° S 19:18:29 69° WSW 19:23:34 10° NNW
ARIANE 5 R/B 3.8 19:15:17 10° ESE 19:18:56 27° ENE 19:22:37 10° N
Cosmos 1833 Rocket 3.2 19:14:19 10° NNW 19:19:48 47° NE 19:25:14 10° SE
Cosmos 1745 Rocket 4.2 19:15:38 10° NNW 19:21:50 77° W 19:27:58 10° S
Resurs 1-3 4.0 19:18:24 10° S 19:22:46 66° WSW 19:27:09 10° NNW
Cosmos 1666 4.4 19:20:02 10° NNE 19:22:48 19° ENE 19:25:32 10° ESE
Cosmos 1709 Rocket 4.0 19:18:10 10° N 19:24:17 70° E 19:30:22 10° SSE
NOSS 3-4 (A) 4.3 19:22:24 10° NW 19:28:59 52° NE 19:36:20 10° ESE
NOSS 3-4 (C) 4.3 19:22:31 10° NW 19:29:05 52° NE 19:36:26 10° ESE
Cosmos 1666 Rocket 3.5 19:25:23 10° N 19:29:49 82° E 19:34:11 10° SSE
BREEZE-M DEB (TANK) 4.4 19:26:07 10° W 19:30:17 48° SSW 19:38:32 10° ESE
USA 307 3.1 19:30:54 10° WNW 19:35:11 70° NNE 19:39:28 10° ESE
Cosmos 1437 3.2 19:33:34 10° SSE 19:36:10 33° E 19:38:47 10° NNE
CZ-2C R/B 4.0 19:32:29 10° NNE 19:36:49 45° E 19:41:11 10° S
NOSS 3-3 (A) 4.0 19:34:10 10° SSW 19:39:46 56° ESE 19:46:12 10° NE
NOSS 3-3 (C) 4.0 19:34:17 10° SSW 19:39:53 56° ESE 19:46:18 10° NE
Intercosmos 24 4.2 19:38:29 10° SSW 19:42:05 60° WNW 19:45:44 10° N
ATLAS 2AS CENTAUR R/B 3.7 19:35:08 10° NW 19:42:19 44° NNE 19:49:00 10° ESE
Cosmos 1354 Rocket 4.0 19:37:39 10° SSW 19:42:53 85° ESE 19:48:10 10° NNE
Sich 1 4.1 19:39:46 10° NNW 19:43:54 44° W 19:48:02 10° SSW
S3M 4.5 19:38:24 10° SSW 19:44:46 68° WNW 19:51:05 10° N
USA 245 2.5 19:43:37 18° SE 19:44:56 39° ENE 19:47:06 10° N
SJ 16-02 2.5 19:42:35 12° SSE 19:45:38 24° E 19:49:12 10° NE
OBJECT-B 3.7 19:45:18 10° SW 19:47:14 15° W 19:49:12 10° NW
SPOT 1/Viking Rocket 3.6 19:42:56 10° SSE 19:48:04 74° ENE 19:53:16 10° NNW
Meteor 1-26 Rocket 4.2 19:42:53 10° S 19:48:34 82° E 19:54:05 10° NNE
USA 308 3.0 19:44:30 10° WNW 19:48:48 79° NNE 19:52:37 13° ESE
Cosmos 2315 Rocket 4.0 19:44:03 10° S 19:50:25 78° E 19:56:49 10° NNE
USA 215 4.2 19:46:25 10° ENE 19:52:38 48° N 19:58:50 10° WNW
Cosmos 1500 3.1 19:49:13 10° N 19:52:59 75° ENE 19:56:07 14° SSE
Iridium 4 Rocket 4.3 19:51:14 13° SSE 19:56:00 42° E 20:01:32 10° NNE
Terra 2.8 19:54:08 15° ESE 19:57:32 33° ENE 20:01:49 10° N
BREEZE M DEB (TANK) 1.8 19:53:08 10° W 19:58:08 74° SSW 19:59:41 19° ESE
Meteor 1-14 Rocket 4.3 19:52:56 10° NNW 19:58:52 90° ENE 20:04:21 11° S
Cosmos 2082 Rocket 2.7 19:54:09 10° NNW 19:59:38 50° NE 20:03:59 16° SE
SPOT 3 Rocket 4.1 19:57:42 10° S 20:02:45 55° W 20:07:50 10° NNW
Cosmos 1151 Rocket 3.2 19:58:39 10° SSW 20:03:00 74° W 20:07:25 10° N
SPOT 5 3.4 19:59:20 16° SE 20:03:15 52° ENE 20:08:25 10° N
Cosmos 158 Rocket 4.3 19:58:51 10° NNW 20:03:36 48° ENE 20:07:03 18° SE
X-37B 2.6 20:01:34 10° WSW 20:03:43 17° SSW 20:04:43 15° S
CREW DRAGON DEMO-1 DEB 2.4 20:01:24 10° WNW 20:04:03 68° SSW 20:05:17 27° SE
COSMOS 2406 3.2 20:00:22 10° NNW 20:06:05 87° WSW 20:10:34 17° SSE
ERBS 4.4 20:03:36 10° NW 20:06:23 24° N 20:09:12 10° ENE
Resurs 01 Rocket 2.8 20:03:17 10° SSW 20:07:29 40° W 20:11:42 10° NNW
Cosmos 2084 3.3 20:03:54 10° SW 20:08:02 79° SE 20:12:19 10° NE
Cosmos 2228 Rocket 4.1 20:08:07 19° SE 20:10:20 29° E 20:14:11 10° NNE
Cosmos 1538 Rocket 4.0 20:09:26 10° NNW 20:14:51 89° WSW 20:18:46 19° SSE
Meteor 2-6 Rocket 4.2 20:12:08 11° S 20:17:18 66° E 20:22:49 10° NNE
Cosmos 1271 Rocket 3.1 20:19:16 22° SSE 20:21:28 46° E 20:25:20 10° NNE
Cosmos 2278 Rocket 2.1 20:20:28 10° SSW 20:26:04 70° ESE 20:31:44 10° NNE
Spot 2 Rocket 3.7 20:22:06 16° S 20:26:08 71° WSW 20:31:12 10° NNW
BREEZE-M DEB (TANK) 0.9 20:25:28 10° W 20:27:30 66° S 20:27:56 48° SE
Cosmos 1782 4.2 20:24:44 10° SW 20:28:28 38° WNW 20:32:13 10° N
USA 305 3.0 20:24:58 10° WNW 20:29:12 63° SSW 20:31:23 27° SE
Cosmos 1680 Rocket 4.1 20:26:10 10° NNW 20:31:20 48° ENE 20:34:33 22° SE
Cosmos 1943 Rocket 3.7 20:32:27 17° ESE 20:33:21 17° E 20:36:55 10° ENE
Cosmos 1515 Rocket 3.7 20:29:37 12° SSW 20:33:42 78° W 20:38:07 10° N
ERS-1 Rocket 2.9 20:30:20 21° SSE 20:33:44 88° WSW 20:38:48 10° NNW
Gbstr 26 Del rocket 4.4 20:26:24 10° W 20:34:12 79° N 20:40:44 10° E
Cosmos 1869 Rocket 3.7 20:32:35 10° N 20:36:52 57° ENE 20:38:55 29° SE
CZ-4C R/B 3.4 20:30:52 10° NW 20:37:53 55° WSW 20:43:47 19° SSE
Meteor 1-11 Rocket 3.8 20:38:08 10° N 20:44:09 84° ENE 20:47:53 24° SSE
ATLAS 5 CENTAUR R/B 4.3 20:42:40 10° WNW 20:46:48 20° WSW 20:51:20 10° SSW
USA 306 3.2 20:44:20 10° WNW 20:48:28 49° SW 20:49:58 33° SSE
Cosmos 1818 4.3 20:44:30 10° NNW 20:49:49 46° NE 20:53:35 18° ESE
Cosmos 1812 3.7 20:47:18 11° SSW 20:50:53 44° WNW 20:54:37 10° N
Cosmos 1340 Rocket 3.2 20:50:06 10° N 20:54:06 50° ENE 20:55:28 34° SE
ARIANE 5 R/B 3.7 20:52:22 17° SSW 20:55:17 37° W 20:59:20 10° NNW
Cosmos 1707 Rocket 4.3 20:55:52 31° SE 20:57:00 36° E 21:01:05 10° NNE
Cosmos 1666 3.8 20:55:01 10° NNW 20:58:30 37° W 21:00:29 21° SSW
Meteor 2-12 Rocket 4.5 20:55:34 10° NNW 21:01:39 79° W 21:05:22 25° S
Cosmos 1833 Rocket 3.8 20:58:32 10° NW 21:03:35 35° WSW 21:07:04 18° SSW
Cosmos 2154 Rocket 4.0 20:59:33 10° N 21:05:55 82° W 21:09:42 26° S
Cosmos 923 Rocket 4.1 21:02:26 10° NNW 21:07:42 73° WSW 21:10:12 32° S
BREEZE-M R/B 1.7 21:05:19 10° W 21:07:45 89° NE 21:07:49 84° E
SL-24 DEB 4.2 21:05:35 31° S 21:07:46 81° W 21:12:24 10° N
Cosmos 1536 2.8 21:05:06 10° NNW 21:09:09 77° W 21:10:33 39° S
Cosmos 1898 Rocket 3.8 21:07:15 32° SSE 21:09:14 48° ESE 21:14:23 10° NNE
Cosmos 1743 2.8 21:09:45 10° N 21:13:36 65° ENE 21:14:28 48° SE
USA 307 3.7 21:11:04 10° WNW 21:14:59 36° SW 21:15:37 34° SSW
H-2A R/B 3.6 21:12:03 10° N 21:16:15 75° WNW 21:18:18 29° SSW
Cosmos 962 Rocket 4.4 21:13:46 10° N 21:19:55 79° E 21:22:54 32° SSE
NOSS 3-4 (A) 4.2 21:13:20 10° NW 21:20:06 54° WSW 21:24:06 28° S
NOSS 3-4 (C) 4.2 21:13:26 10° NW 21:20:12 54° WSW 21:24:12 28° S
Cosmos 990 Rocket 3.9 21:20:01 30° S 21:22:38 74° ESE 21:27:54 10° NNE
Cosmos 1975 3.9 21:20:22 10° N 21:23:57 31° ENE 21:24:44 28° E
SJ 16-02 2.5 21:19:44 10° SW 21:23:59 43° WNW 21:28:14 10° N
Nadezhda 1 Rocket 4.1 21:19:51 21° SSW 21:24:19 75° W 21:30:35 10° N
Cosmos 2297 3.8 21:22:46 34° S 21:25:01 55° ESE 21:30:34 10° NE
RESURS DK-1 4.4 21:21:57 10° N 21:25:13 21° NE 21:27:39 14° E
Cosmos 1733 Rocket 3.1 21:22:24 10° N 21:26:43 63° ENE 21:27:49 45° SE
USA 308 4.0 21:24:46 10° WNW 21:28:31 29° SW 21:28:43 29° SW
Cosmos 1461 4.3 21:31:04 26° ESE 21:31:04 26° ESE 21:34:24 10° ENE
ATLAS 2AS CENTAUR R/B 2.8 21:26:25 10° NW 21:33:47 69° SW 21:37:04 33° SSE
USA 215 3.8 21:28:44 10° E 21:35:07 59° NNE 21:41:31 10° WNW
Terra 2.9 21:33:01 23° SW 21:35:15 35° W 21:39:39 10° NNW
Cosmos 1544 3.6 21:32:55 10° NNW 21:36:24 48° W 21:37:03 42° SW
ERBS 2.5 21:39:41 10° NW 21:42:59 62° NNE 21:43:15 59° ENE
Cosmos 2082 Rocket 3.3 21:38:35 10° NW 21:43:31 32° WSW 21:45:50 24° SW
Cosmos 2112 Rocket 4.4 21:41:06 10° NNW 21:46:19 54° WSW 21:48:11 36° SSW
Cosmos 2181 Rocket 4.0 21:44:37 37° SSE 21:47:07 67° E 21:53:12 10° NNE
Cosmos 44 3.7 21:45:10 10° NW 21:50:31 58° WSW 21:51:59 43° S
Cosmos 967 Rocket 4.4 21:49:31 29° SSW 21:52:53 73° SE 21:59:11 10° NE
Cosmos 2366 rocket 3.9 21:47:12 10° N 21:53:24 80° E 21:55:56 38° SSE
Spot 4 3.8 21:55:19 48° SSE 21:56:42 90° NE 22:01:36 10° NNW
Cosmos 2084 Rocket 3.4 21:54:30 10° NW 21:58:44 64° SW 21:59:14 58° SSW
Cosmos 2341 Rocket 4.3 21:54:55 10° NNW 22:01:13 63° W 22:04:08 33° SSW
BREEZE-M DEB (TANK) 3.1 21:57:36 10° W 22:02:44 55° N 22:03:26 40° NE
Cosmos 1515 4.0 22:04:29 52° WSW 22:05:01 58° WNW 22:08:47 10° N
Cosmos 2278 Rocket 4.2 22:05:55 10° WSW 22:10:42 27° NW 22:15:30 10° NNE
Cosmos 489 Rocket 4.5 22:04:45 10° NNW 22:10:59 74° WSW 22:13:17 41° S
Cosmos 1862 Rocket 3.5 22:10:39 54° SW 22:11:32 74° W 22:15:53 10° N
Cosmos 1937 Rocket 3.5 22:09:32 36° SW 22:11:39 75° WNW 22:16:51 10° NNE
Cosmos 1703 Rocket 4.1 22:11:43 41° ESE 22:12:06 42° E 22:16:16 10° NNE
Cosmos 1782 Rocket 4.3 22:09:02 10° N 22:13:18 42° ENE 22:14:13 37° ESE
Cosmos 2218 Rocket 4.1 22:09:30 10° NNW 22:15:46 72° W 22:18:16 39° S
Cosmos 1943 Rocket 2.1 22:13:55 36° SSW 22:16:22 86° WNW 22:22:00 10° NNE
Cosmos 2369 Rocket 2.3 22:17:10 46° SSE 22:18:30 58° ESE 22:24:02 10° NE
Meteor 1-19 Rocket 4.2 22:19:24 40° SSW 22:21:21 75° WNW 22:26:47 10° N
Gbstr 26 Del rocket 4.0 22:14:22 10° WNW 22:21:34 64° SSW 22:23:47 40° SSE
Cosmos 1238 Rocket 4.3 22:17:12 10° NNW 22:23:10 48° W 22:25:13 33° SW
Cosmos 1048 Rocket 4.1 22:18:37 10° NNW 22:23:58 69° ENE 22:25:40 43° SE
COBE Rocket 4.0 22:24:30 49° SSE 22:25:52 78° ENE 22:31:03 10° N
Gblst 52 Del rocket 4.4 22:19:57 10° WNW 22:26:49 71° SSW 22:29:37 34° SE
Cosmos 1607 4.4 22:26:50 40° SSE 22:28:18 46° ESE 22:34:29 10° NE
Okean 1 4.3 22:29:36 33° WSW 22:30:29 38° WNW 22:34:15 10° N
Okean 1-7 3.0 22:31:00 60° ESE 22:31:19 63° E 22:35:33 10° NNE
Thor Agena Rocket 4.0 22:27:04 10° NNE 22:32:07 46° E 22:33:11 40° SE
Cosmos 1818 4.1 22:28:15 10° NW 22:33:23 41° WSW 22:34:12 39° SW
Cosmos 2298 Rocket 4.3 22:35:33 46° SE 22:36:29 52° ESE 22:41:37 10° NNE
Cosmos 1656 Rocket 3.9 22:35:34 45° SE 22:36:33 51° ESE 22:41:54 10° NE
Nadezhda 3 Rocket 4.2 22:35:11 40° SSE 22:37:17 60° E 22:43:24 10° NNE
DNEPR-1 R/B 4.2 22:34:46 25° SW 22:38:06 70° NW 22:42:57 10° NE
ALOS 2 2.7 22:41:06 54° SW 22:41:37 58° W 22:45:58 10° NNW
Cosmos 2263 4.2 22:43:18 47° S 22:44:51 67° ESE 22:50:37 10° NNE
Cosmos 1356 Rocket 3.6 22:42:45 10° N 22:47:01 64° ENE 22:47:36 56° ESE
Meteor 2-4 Rocket 3.8 22:47:04 43° SSW 22:49:02 76° WNW 22:54:41 10° N
Meteor 1-13 Rocket 4.3 22:51:57 46° SSE 22:53:26 65° E 22:58:54 10° NNE
SL-27 R/B 2.8 22:51:02 10° NNW 22:53:51 60° N 22:53:51 60° N
BREEZE-M DEB (TANK) 4.0 22:44:57 10° WNW 22:57:38 52° SW 22:58:40 46° S
COSMOS 2455 4.4 22:52:42 10° NNW 22:58:09 34° NE 23:03:34 10° ESE
Cosmos 1975 4.3 22:56:59 10° NNW 23:00:17 25° W 23:00:28 25° W
PSLV R/B 4.1 22:56:09 10° NNE 23:00:22 44° E 23:00:45 43° ESE
Resurs 1-4 Rocket 4.4 22:59:30 10° ENE 23:01:08 11° E 23:02:47 10° ESE
Sich 1 Rocket 3.8 22:58:36 10° N 23:03:10 67° ENE 23:04:02 53° SE
RESURS DK-1 2.5 22:59:29 10° NW 23:03:31 60° WSW 23:03:31 60° WSW
Cosmos 2150 Rocket 4.0 23:04:29 51° S 23:05:51 82° ESE 23:11:11 10° NNE
Cosmos 2297 Rocket 4.2 23:02:29 10° NNW 23:07:08 25° NE 23:11:47 10° E
SeaSat 1 2.7 23:02:57 10° NE 23:07:47 52° ESE 23:08:32 47° SE
Cosmos 1833 4.3 23:02:10 10° NNW 23:07:53 66° WSW 23:09:22 47° S
NOSS 2-1 (E) 4.4 23:04:12 10° NW 23:08:53 65° NE 23:14:21 15° SE
Cosmos 1461 3.7 23:07:22 31° WSW 23:09:21 54° NW 23:13:53 10° NNE
Cosmos 2242 Rocket 4.1 23:09:01 43° WSW 23:09:52 50° WNW 23:14:14 10° N
Meteor 1-12 Rocket 4.3 23:05:06 10° NNW 23:10:58 73° W 23:12:43 46° SSW
Cosmos 2239 Rocket 4.5 23:05:02 10° NNW 23:11:19 76° W 23:13:35 42° S
Cosmos 1400 Rocket 4.3 23:12:24 10° N 23:16:06 30° ENE 23:17:25 25° ESE
ISS -2.8 23:18:16 41° ENE 23:18:16 41° ENE 23:20:37 10° ENE
USA 215 3.1 23:13:57 25° SE 23:18:04 72° SW 23:24:38 10° WNW
Cosmos 494 Rocket 4.1 23:14:05 10° NNW 23:19:12 59° WSW 23:20:07 50° SSW
Cosmos 1300 Rocket 3.4 23:16:37 10° N 23:21:04 87° E 23:21:41 65° SSE
Okean 2 Rocket 3.1 23:18:45 10° N 23:23:10 73° E 23:23:56 57° SE
ATLAS 2AS CENTAUR R/B 4.4 23:19:19 10° WNW 23:23:19 16° WSW 23:24:29 15° WSW
Cosmos 2151 Rocket 3.9 23:19:27 10° N 23:23:56 59° ENE 23:25:02 45° SE
Cosmos 1867 3.6 23:25:56 39° SW 23:28:00 79° NW 23:33:32 10° NE
Cosmos 1125 Rocket 3.4 23:26:49 49° SSW 23:28:18 83° WNW 23:33:33 10° NNE
Cosmos 1842 4.4 23:29:12 31° ESE 23:29:36 32° E 23:33:04 10° NNE
Cosmos 44 Rocket 3.3 23:24:30 10° NW 23:29:46 82° SW 23:31:23 45° SSE
Cosmos 1378 3.8 23:34:53 43° W 23:35:01 43° WNW 23:38:35 10° N
ATLAS CENTAUR R/B 1.0 23:38:30 79° W 23:38:36 81° NW 23:42:26 10° NE
Cosmos 1934 Rocket 4.0 23:33:55 10° NNW 23:40:02 67° W 23:42:10 41° SSW
Cosmos 2344 4.3 23:30:59 10° NW 23:40:08 69° SW 23:51:08 15° SSE
USA 281 3.5 23:36:59 17° SE 23:42:08 67° ENE 23:48:40 10° NNW
YAOGAN 11 4.1 23:41:08 50° SE 23:42:10 74° ENE 23:46:28 10° N
Cosmos 1726 3.6 23:39:00 10° N 23:42:21 31° ENE 23:43:27 26° ESE
Meteor 1-22 Rocket 4.4 23:36:25 10° N 23:42:25 77° ENE 23:45:13 34° SSE
USA 81 4.0 23:43:34 10° N 23:48:54 87° W 23:50:37 45° S
Okean 3 4.4 23:50:46 34° W 23:51:34 37° WNW 23:55:32 10° N
